TimeAKDT,TemperatureF,Dew PointF,Humidity,Sea Level PressureIn,VisibilityMPH,Wind Direction,Wind SpeedMPH,Gust SpeedMPH,PrecipitationIn,Events,Conditions,WindDirDegrees,DateUTC
12:02 AM,33.8,33.8,100,29.90,1.5,East,13.8,-,N/A,,Overcast,90,2013-09-08 08:02:00
12:16 AM,33.8,33.8,100,29.90,1.2,East,15.0,-,N/A,,Overcast,80,2013-09-08 08:16:00
12:53 AM,33.1,33.1,100,29.90,1.0,East,11.5,-,N/A,,Overcast,80,2013-09-08 08:53:00
1:43 AM,33.8,33.8,100,29.89,3.0,East,16.1,-,N/A,,Overcast,80,2013-09-08 09:43:00
1:53 AM,33.1,33.1,100,29.89,3.0,East,13.8,-,0.01,,Overcast,80,2013-09-08 09:53:00
2:05 AM,33.8,33.8,100,29.89,2.0,East,12.7,-,N/A,,Overcast,80,2013-09-08 10:05:00
2:12 AM,33.8,33.8,100,29.89,1.8,ENE,13.8,-,N/A,,Overcast,70,2013-09-08 10:12:00
2:32 AM,33.8,33.8,100,29.89,2.5,East,17.3,-,N/A,,Overcast,80,2013-09-08 10:32:00
2:39 AM,33.8,33.8,100,29.89,5.0,East,16.1,21.9,N/A,,Overcast,80,2013-09-08 10:39:00
2:53 AM,33.1,33.1,100,29.89,3.0,East,13.8,-,N/A,,Overcast,80,2013-09-08 10:53:00
3:07 AM,33.8,33.8,100,29.89,2.0,East,17.3,-,N/A,,Overcast,80,2013-09-08 11:07:00
3:25 AM,33.8,33.8,100,29.89,1.2,East,16.1,-,N/A,,Overcast,80,2013-09-08 11:25:00
3:39 AM,33.8,33.8,100,29.88,3.0,East,13.8,-,N/A,,Overcast,80,2013-09-08 11:39:00
3:53 AM,33.1,33.1,100,29.89,8.0,ENE,13.8,21.9,N/A,,Overcast,70,2013-09-08 11:53:00
4:45 AM,33.8,33.8,100,29.88,7.0,ENE,13.8,-,N/A,,Overcast,70,2013-09-08 12:45:00
4:53 AM,34.0,34.0,100,29.88,6.0,ENE,15.0,-,N/A,,Overcast,70,2013-09-08 12:53:00
5:53 AM,34.0,34.0,100,29.87,6.0,ENE,13.8,-,N/A,,Overcast,70,2013-09-08 13:53:00
6:03 AM,33.8,33.8,100,29.87,7.0,ENE,15.0,-,N/A,,Overcast,70,2013-09-08 14:03:00
6:40 AM,33.8,33.8,100,29.87,5.0,ENE,15.0,-,N/A,,Overcast,70,2013-09-08 14:40:00
6:53 AM,34.0,34.0,100,29.87,4.0,ENE,13.8,-,N/A,,Overcast,70,2013-09-08 14:53:00
7:31 AM,33.8,33.8,100,29.86,1.8,ENE,15.0,-,N/A,,Overcast,70,2013-09-08 15:31:00
7:53 AM,34.0,34.0,100,29.87,2.0,ENE,11.5,-,N/A,,Overcast,60,2013-09-08 15:53:00
8:31 AM,33.8,33.8,100,29.86,5.0,ENE,12.7,-,N/A,,Overcast,60,2013-09-08 16:31:00
8:53 AM,34.0,34.0,100,29.87,3.0,ENE,13.8,-,N/A,,Overcast,70,2013-09-08 16:53:00
9:07 AM,33.8,33.8,100,29.86,2.0,ENE,15.0,-,N/A,,Overcast,70,2013-09-08 17:07:00
9:53 AM,35.1,35.1,100,29.86,3.0,ENE,15.0,-,N/A,,Overcast,60,2013-09-08 17:53:00
10:53 AM,35.1,35.1,100,29.87,4.0,ENE,17.3,24.2,N/A,,Overcast,60,2013-09-08 18:53:00
11:53 AM,35.1,35.1,100,29.86,7.0,ENE,17.3,-,N/A,,Overcast,70,2013-09-08 19:53:00
12:53 PM,35.1,35.1,100,29.86,4.0,ENE,13.8,-,N/A,,Overcast,60,2013-09-08 20:53:00
1:53 PM,35.1,34.0,96,29.86,8.0,ENE,16.1,24.2,N/A,,Overcast,70,2013-09-08 21:53:00
2:20 PM,35.6,33.8,93,29.86,10.0,East,17.3,24.2,N/A,,Overcast,80,2013-09-08 22:20:00
2:53 PM,35.1,34.0,96,29.86,10.0,ENE,19.6,-,N/A,,Overcast,70,2013-09-08 22:53:00
3:53 PM,36.0,33.1,89,29.87,10.0,East,17.3,-,N/A,,Overcast,90,2013-09-08 23:53:00
4:53 PM,35.1,33.1,92,29.87,10.0,ENE,15.0,23.0,N/A,,Overcast,70,2013-09-09 00:53:00
5:53 PM,34.0,33.1,96,29.87,10.0,ENE,18.4,-,N/A,,Overcast,70,2013-09-09 01:53:00
6:53 PM,34.0,33.1,96,29.87,10.0,East,15.0,-,N/A,,Overcast,80,2013-09-09 02:53:00
7:53 PM,33.1,33.1,100,29.89,9.0,East,16.1,-,N/A,,Overcast,90,2013-09-09 03:53:00
8:53 PM,32.0,32.0,100,29.89,8.0,East,18.4,-,N/A,,Overcast,80,2013-09-09 04:53:00
9:51 PM,32.0,32.0,100,29.88,5.0,ENE,16.1,-,N/A,,Overcast,70,2013-09-09 05:51:00
9:53 PM,32.0,32.0,100,29.88,5.0,ENE,16.1,-,N/A,,Overcast,70,2013-09-09 05:53:00
10:53 PM,32.0,32.0,100,29.89,6.0,East,12.7,-,N/A,,Overcast,90,2013-09-09 06:53:00
11:53 PM,32.0,30.9,96,29.89,9.0,East,19.6,-,N/A,,Overcast,90,2013-09-09 07:53:00